"TOA5","MOW","CPU:UNC_MeetingWaters","DataHourly"
"TIMESTAMP","SondeTempC","SpCond","DOSat","DOmg","pH","Turb","BattVolt_Min"
"TS","","","","","","",""
"","Smp","Smp","Smp","Smp","Smp","Smp","Min"
"2009-02-01 00:00:00",1.86000001431,0.0,105.400001526,11.5,6.63999986649,1.79999995232,12.8699998856
"2009-02-01 01:00:00",1.35000002384,0.0,104.900001526,4.59999990463,6.76999998093,1.79999995232,12.8400001526
"2009-02-01 02:00:00",0.97000002861,0.0,106.199996948,2.29999995232,6.80999994278,3.20000004768,12.7899999619
"2009-02-01 03:00:00",0.239999994636,0.0,106.300003052,2.20000004768,6.80999994278,3.59999990463,12.779999733
"2009-02-01 04:00:00",0.0599999986589,0.0010000000475,105.699996948,-0.600000023842,6.86999988556,3.5,12.75
"2009-02-01 05:00:00",0.230000004172,0.0010000000475,106.300003052,-1.89999997616,6.88999986649,2.90000009537,12.720000267
"2009-02-01 06:00:00",0.209999993443,0.0010000000475,105.5,-3.09999990463,6.90999984741,3.79999995232,12.6899995804
"2009-02-01 07:00:00",0.129999995232,0.0010000000475,105.300003052,-4.30000019073,6.94000005722,3.90000009537,12.6700000763
"2009-02-01 08:00:00",-0.0599999986589,0.0010000000475,105.5,-4.40000009537,6.94000005722,4.30000019073,12.6400003433
"2009-02-01 09:00:00",0.0500000007451,0.0010000000475,105.900001526,-6.40000009537,6.98000001907,4.69999980927,12.6199998856
"2009-02-01 10:00:00",0.109999999404,0.0010000000475,105.699996948,-6.40000009537,6.98000001907,5.80000019073,12.6199998856
"2009-02-01 11:00:00",-0.209999993443,0.0010000000475,105.800003052,-4.90000009537,6.94999980927,5.40000009537,12.6099996567
"2009-02-01 12:00:00",-0.230000004172,0.0010000000475,105.5,-5.59999990463,6.96000003815,4.09999990463,12.6099996567
"2009-02-01 13:00:00",0.959999978542,0.0010000000475,106.0,-7.80000019073,7.0,4.09999990463,12.6499996185
"2009-02-01 14:00:00",4.75,0.0,104.5,44.2000007629,6.05000019073,3.59999990463,12.8199996948
"2009-02-01 15:00:00",8.23999977112,0.0,102.400001526,30.0,6.32000017166,3.29999995232,13.3900003433
"2009-02-01 16:00:00",11.9300003052,0.0,103.0,102.800003052,5.01999998093,2.0,13.5799999237
"2009-02-01 17:00:00",14.0799999237,0.0,104.099998474,94.0,5.19000005722,1.89999997616,13.5100002289
"2009-02-01 18:00:00",13.6599998474,0.0,104.0,103.0,5.03000020981,2.0,13.5
"2009-02-01 19:00:00",14.3699998856,0.0,103.699996948,111.099998474,4.88999986649,2.09999990463,13.470000267
"2009-02-01 20:00:00",12.5799999237,0.0,104.199996948,110.5,4.88999986649,2.20000004768,13.4799995422
"2009-02-01 21:00:00",11.1800003052,0.0,104.599998474,106.800003052,4.94000005722,2.29999995232,13.1199998856
"2009-02-01 22:00:00",9.26000022888,0.0,105.400001526,82.5999984741,5.36999988556,2.09999990463,12.9899997711
"2009-02-01 23:00:00",7.38999986649,0.0,106.0,119.300003052,4.69000005722,2.20000004768,12.9300003052
"2009-02-02 00:00:00",5.98000001907,0.0,106.199996948,84.1999969482,5.32000017166,2.20000004768,12.8900003433
"2009-02-02 01:00:00",5.15999984741,0.0,106.199996948,76.4000015259,5.46000003815,1472.0,12.8699998856
"2009-02-02 02:00:00",4.69000005722,0.0,106.199996948,55.2000007629,5.84000015259,5.69999980927,12.8400001526
"2009-02-02 03:00:00",4.26000022888,0.0,106.099998474,49.0999984741,5.94999980927,2.09999990463,12.8100004196
"2009-02-02 04:00:00",4.05000019073,0.0010000000475,106.099998474,45.5999984741,6.01999998093,2.09999990463,12.779999733
"2009-02-02 05:00:00",3.5,0.0010000000475,106.300003052,35.7000007629,6.19999980927,3.29999995232,12.7600002289
"2009-02-02 06:00:00",2.98000001907,0.0010000000475,106.0,31.6000003815,6.26999998093,2.09999990463,12.7299995422
"2009-02-02 07:00:00",2.49000000954,0.0010000000475,106.099998474,28.8999996185,6.32000017166,2.0,12.6999998093
"2009-02-02 08:00:00",2.15000009537,0.0010000000475,105.800003052,26.8999996185,6.36000013351,1.89999997616,12.6700000763
"2009-02-02 09:00:00",1.72000002861,0.0010000000475,106.099998474,25.0,6.38999986649,2.0,12.6499996185
"2009-02-02 10:00:00",1.40999996662,0.0010000000475,105.800003052,23.5,6.42000007629,2.0,12.6300001144
"2009-02-02 11:00:00",1.13999998569,0.0010000000475,105.599998474,23.2000007629,6.42000007629,2.20000004768,12.6199998856
"2009-02-02 12:00:00",0.930000007153,0.0010000000475,105.800003052,21.7000007629,6.44999980927,2.0,12.6199998856
"2009-02-02 13:00:00",3.1099998951,0.0010000000475,105.400001526,13.8999996185,6.59999990463,2.0,12.6999998093
"2009-02-02 14:00:00",5.76000022888,0.0010000000475,104.900001526,25.3999996185,6.38999986649,2.0,13.3199996948
"2009-02-02 15:00:00",9.81000041962,0.0,103.199996948,30.7999992371,6.30000019073,1.89999997616,13.5200004578
"2009-02-02 16:00:00",12.4399995804,0.0,108.0,97.5,5.11999988556,9.60000038147,14.279999733
"2009-02-02 17:00:00",12.7700004578,0.0,102.0,79.0,5.44999980927,9.10000038147,13.470000267
"2009-02-02 18:00:00",14.0699996948,0.0,100.699996948,73.1999969482,5.55999994278,11.8000001907,13.4600000381
"2009-02-02 19:00:00",14.0100002289,0.0,100.400001526,70.9000015259,5.59999990463,11.5,13.4600000381
"2009-02-02 20:00:00",13.0200004578,0.0,101.099998474,70.5,5.59999990463,12.5,13.470000267
"2009-02-02 21:00:00",12.2700004578,0.0,102.900001526,67.4000015259,5.65000009537,24.1000003815,13.1800003052
"2009-02-02 22:00:00",10.9399995804,0.0,104.099998474,59.2999992371,5.78999996185,12.8999996185,12.9899997711
"2009-02-02 23:00:00",9.89000034332,0.0,104.699996948,49.5,5.96999979019,13.0,12.9399995804
"2009-02-03 00:00:00",9.56999969482,0.0,104.800003052,39.2999992371,6.15000009537,13.1000003815,12.9099998474
"2009-02-03 01:00:00",9.34000015259,0.0010000000475,105.0,44.7000007629,6.05000019073,13.1000003815,12.8800001144
"2009-02-03 02:00:00",7.82000017166,0.00200000009499,106.099998474,68.0999984741,5.61999988556,18.3999996185,12.8599996567
"2009-02-03 03:00:00",9.86999988556,0.203999996185,95.4000015259,48.7999992371,5.98000001907,53.4000015259,12.8299999237
"2009-02-03 04:00:00",10.3299999237,0.300999999046,90.8000030518,44.0,6.07000017166,88.8000030518,12.8000001907
"2009-02-03 05:00:00",10.0799999237,0.187000006437,96.9000015259,41.5999984741,6.11000013351,234.600006104,12.7700004578
"2009-02-03 06:00:00",9.27999973297,0.170000001788,99.5999984741,23.6000003815,6.42999982834,219.800003052,12.7299995422
"2009-02-03 07:00:00",8.71000003815,0.16400000453,99.5999984741,15.5,6.57999992371,166.5,12.6999998093
"2009-02-03 08:00:00",8.43999958038,0.171000003815,98.6999969482,28.2000007629,6.34999990463,102.900001526,12.6700000763
"2009-02-03 09:00:00",8.31999969482,0.104000002146,97.4000015259,19.3999996185,6.51000022888,98.0,12.6400003433
"2009-02-03 10:00:00",7.69000005722,0.00800000037998,96.5,16.6000003815,6.55999994278,82.0999984741,12.6400003433
"2009-02-03 11:00:00",5.25,0.00800000037998,99.5,23.2999992371,6.42999982834,58.0,12.6300001144
"2009-02-03 12:00:00",3.88000011444,0.00800000037998,98.6999969482,10.3000001907,6.67000007629,40.9000015259,12.6300001144
"2009-02-03 13:00:00",3.70000004768,0.00800000037998,100.699996948,0.600000023842,6.84999990463,36.4000015259,12.75
"2009-02-03 14:00:00",3.72000002861,0.00700000021607,104.300003052,-3.79999995232,6.92999982834,30.3999996185,13.0200004578
"2009-02-03 15:00:00",4.78000020981,0.00600000005215,109.599998474,2.29999995232,6.82000017166,32.2999992371,13.5200004578
"2009-02-03 16:00:00",7.28999996185,0.00400000018999,110.300003052,23.3999996185,6.42999982834,22.0,13.8299999237
"2009-02-03 17:00:00",9.90999984741,0.0,110.400001526,71.9000015259,5.55999994278,19.6000003815,13.720000267
"2009-02-03 18:00:00",7.73000001907,0.0,116.699996948,90.6999969482,5.21000003815,29.1000003815,13.720000267
"2009-02-03 19:00:00",9.26000022888,0.0,113.300003052,96.0,5.11999988556,83.4000015259,13.720000267
"2009-02-03 20:00:00",7.92000007629,0.0,105.199996948,102.199996948,5.0,16.6000003815,13.720000267
"2009-02-03 21:00:00",6.73000001907,0.0,103.199996948,104.400001526,4.94999980927,20.3999996185,13.1199998856
"2009-02-03 22:00:00",5.38000011444,0.0,106.5,45.9000015259,6.01999998093,22.7000007629,12.9399995804
"2009-02-03 23:00:00",5.23000001907,0.0,97.9000015259,70.9000015259,5.55999994278,48.2000007629,12.8999996185
"2009-02-04 00:00:00",4.80000019073,0.0,106.099998474,68.1999969482,5.59999990463,5.5,12.8699998856
"2009-02-04 01:00:00",4.32999992371,0.0,106.5,57.5999984741,5.80000019073,7.69999980927,12.8400001526
"2009-02-04 02:00:00",3.58999991417,0.0010000000475,102.5,52.5,5.88999986649,57.9000015259,12.8199996948
"2009-02-04 03:00:00",3.68000006676,0.0010000000475,104.5,32.5,6.26000022888,6.59999990463,12.7899999619
"2009-02-04 04:00:00",2.8599998951,0.0010000000475,107.0,29.0,6.32000017166,4.40000009537,12.7600002289
"2009-02-04 05:00:00",2.90000009537,0.0010000000475,105.699996948,22.2999992371,6.44000005722,6.09999990463,12.7299995422
"2009-02-04 06:00:00",2.8599998951,0.0010000000475,105.199996948,22.3999996185,6.44000005722,4.80000019073,12.6899995804
"2009-02-04 07:00:00",2.54999995232,0.0010000000475,105.099998474,22.7999992371,6.42999982834,4.30000019073,12.6599998474
"2009-02-04 08:00:00",2.00999999046,0.0010000000475,105.699996948,22.0,6.44999980927,4.30000019073,12.6400003433
"2009-02-04 09:00:00",1.76999998093,0.0,105.199996948,19.1000003815,6.5,4.40000009537,12.6199998856
"2009-02-04 10:00:00",1.23000001907,0.0,104.400001526,17.2999992371,6.53000020981,4.19999980927,12.6099996567
"2009-02-04 11:00:00",0.860000014305,0.0,104.400001526,18.7000007629,6.51000022888,4.69999980927,12.6000003815
"2009-02-04 12:00:00",0.360000014305,0.0,104.900001526,8.80000019073,6.69000005722,4.19999980927,12.6000003815
"2009-02-04 13:00:00",0.25,0.0,104.199996948,-4.09999990463,6.92999982834,4.80000019073,12.6700000763
"2009-02-04 14:00:00",0.550000011921,0.0,104.900001526,3.79999995232,6.78999996185,4.5,13.0600004196
"2009-02-04 15:00:00",1.97000002861,0.0,103.900001526,5.59999990463,6.75,4.69999980927,13.6300001144
"2009-02-04 16:00:00",5.03999996185,0.0,104.099998474,35.5,6.21000003815,4.69999980927,14.3100004196
"2009-02-04 17:00:00",7.30999994278,0.0,104.699996948,104.099998474,4.96000003815,4.09999990463,13.8199996948
"2009-02-04 18:00:00",5.71999979019,0.0,105.699996948,105.599998474,4.92000007629,4.0,13.8100004196
"2009-02-04 19:00:00",6.0,0.0,105.400001526,70.9000015259,5.55999994278,4.19999980927,13.8199996948
"2009-02-04 20:00:00",3.82999992371,0.0,106.800003052,72.5999984741,5.51999998093,4.0,13.8199996948
"2009-02-04 21:00:00",2.90000009537,0.0,107.300003052,60.4000015259,5.73999977112,5.0,13.1099996567
"2009-02-04 22:00:00",1.87000000477,0.0,108.099998474,52.2999992371,5.88000011444,5.0,12.9399995804
"2009-02-04 23:00:00",1.32000005245,0.0,108.400001526,41.9000015259,6.07999992371,4.59999990463,12.8900003433
"2009-02-05 00:00:00",0.620000004768,0.0,106.900001526,26.7000007629,6.36000013351,5.09999990463,12.8500003815
"2009-02-05 01:00:00",-0.239999994636,0.0,106.800003052,12.3000001907,6.63000011444,4.90000009537,12.8299999237
"2009-02-05 02:00:00",-0.819999992847,0.0,106.099998474,8.69999980927,6.69000005722,4.90000009537,12.779999733
"2009-02-05 03:00:00",-1.45000004768,0.0,104.199996948,5.59999990463,6.75,5.09999990463,12.7600002289
"2009-02-05 04:00:00",-1.75,0.0,106.0,2.09999990463,6.82000017166,4.5,12.7399997711
"2009-02-05 05:00:00",-2.38000011444,0.0,107.0,-1.10000002384,6.86999988556,2.20000004768,12.7100000381
"2009-02-05 06:00:00",-2.77999997139,0.0,107.199996948,2.5,6.80999994278,2.20000004768,12.6700000763
"2009-02-05 07:00:00",-3.05999994278,0.0,107.400001526,-1.5,6.88000011444,3.09999990463,12.6300001144
"2009-02-05 08:00:00",-3.25999999046,0.0,107.400001526,-2.09999990463,6.88999986649,2.20000004768,12.5900001526
"2009-02-05 09:00:00",-3.98000001907,0.0,108.099998474,4.80000019073,6.76000022888,2.20000004768,12.5699996948
"2009-02-05 10:00:00",-4.05000019073,0.0,107.699996948,0.10000000149,6.84999990463,2.90000009537,12.5500001907
"2009-02-05 11:00:00",-4.17999982834,0.0,107.400001526,-0.300000011921,6.86000013351,2.29999995232,12.5399999619
"2009-02-05 12:00:00",-4.32000017166,0.0,107.599998474,0.300000011921,6.84999990463,3.29999995232,12.5500001907
"2009-02-05 13:00:00",-3.55999994278,0.0,107.699996948,4.69999980927,6.76000022888,4.0,12.6000003815
"2009-02-05 14:00:00",-2.15000009537,0.0,107.099998474,2.90000009537,6.80000019073,2.59999990463,12.8000001907
"2009-02-05 15:00:00",-1.32000005245,0.0,106.900001526,9.80000019073,6.67000007629,2.59999990463,13.7299995422
"2009-02-05 16:00:00",1.35000002384,0.0,106.800003052,21.2000007629,6.46000003815,2.59999990463,14.0500001907
"2009-02-05 17:00:00",4.15999984741,0.0,104.400001526,71.5,5.53999996185,9.19999980927,13.8999996185
"2009-02-05 18:00:00",3.11999988556,0.0,106.5,73.3000030518,5.5,4.40000009537,13.8900003433
"2009-02-05 19:00:00",4.01999998093,0.0,105.699996948,71.3000030518,5.53999996185,4.30000019073,13.8900003433
"2009-02-05 20:00:00",2.68000006676,0.0,107.199996948,70.9000015259,5.53999996185,7.30000019073,13.9099998474
"2009-02-05 21:00:00",1.79999995232,0.0,107.300003052,21.5,6.46000003815,4.69999980927,13.1000003815
"2009-02-05 22:00:00",0.0500000007451,0.0,107.800003052,8.69999980927,6.69000005722,7.40000009537,12.9399995804
"2009-02-05 23:00:00",-1.07000005245,0.0,108.199996948,-3.09999990463,6.90999984741,5.40000009537,12.8900003433
"2009-02-06 00:00:00",-1.65999996662,0.0,108.0,-1.70000004768,6.88999986649,9.80000019073,12.8599996567
"2009-02-06 01:00:00",-2.28999996185,0.0,107.599998474,-4.90000009537,6.94999980927,8.89999961853,12.8299999237
"2009-02-06 02:00:00",-2.88000011444,0.0,107.300003052,-7.0,6.98999977112,97.6999969482,12.8000001907
"2009-02-06 03:00:00",-3.15000009537,0.0,108.599998474,0.899999976158,6.84000015259,2.5,12.7600002289
"2009-02-06 04:00:00",-3.75999999046,0.0,108.300003052,-4.90000009537,6.94999980927,2.40000009537,12.7299995422
"2009-02-06 05:00:00",-3.76999998093,0.0,107.199996948,-9.5,7.03000020981,2.0,12.6999998093
"2009-02-06 06:00:00",-4.40999984741,0.0,107.300003052,-15.5,7.15000009537,2.09999990463,12.6599998474
"2009-02-06 07:00:00",-4.63999986649,0.0010000000475,107.5,-16.2999992371,7.15999984741,2.20000004768,12.5900001526
"2009-02-06 08:00:00",-4.88999986649,0.0010000000475,107.5,-17.2000007629,7.17999982834,30.6000003815,12.5699996948
"2009-02-06 09:00:00",-4.82999992371,0.0010000000475,107.599998474,-18.1000003815,7.19999980927,3.40000009537,12.5500001907
"2009-02-06 10:00:00",-5.19000005722,0.0010000000475,108.800003052,-13.6000003815,7.11000013351,3.79999995232,12.5399999619
"2009-02-06 11:00:00",-4.98999977112,0.0010000000475,107.300003052,-19.1000003815,7.21999979019,4.5,12.5200004578
"2009-02-06 12:00:00",-4.48999977112,0.0010000000475,106.900001526,-19.1000003815,7.21999979019,4.19999980927,12.5200004578
"2009-02-06 13:00:00",-2.91000008583,0.0010000000475,106.900001526,-13.6999998093,7.11000013351,2.59999990463,12.6099996567
"2009-02-06 14:00:00",0.449999988079,0.0,106.300003052,9.19999980927,6.67999982834,2.70000004768,12.9300003052
"2009-02-06 15:00:00",3.66000008583,0.0,104.699996948,25.2999992371,6.38999986649,4.59999990463,13.7299995422
"2009-02-06 16:00:00",7.73999977112,0.0,106.0,59.5,5.78000020981,8.30000019073,14.0600004196
"2009-02-06 17:00:00",11.5799999237,0.0,112.599998474,119.599998474,4.71999979019,16.8999996185,13.6800003052
"2009-02-06 18:00:00",10.1400003433,0.0,102.0,117.099998474,4.75,2.20000004768,13.6599998474
"2009-02-06 19:00:00",10.8800001144,0.0,101.0,105.099998474,4.96999979019,1.70000004768,13.5900001526
"2009-02-06 20:00:00",9.89999961853,0.0,102.5,111.5,4.84999990463,1.70000004768,13.6099996567
"2009-02-06 21:00:00",7.48000001907,0.0,104.099998474,98.1999969482,5.07000017166,1.70000004768,13.0900001526
"2009-02-06 22:00:00",4.94000005722,0.0,105.5,28.0,6.34000015259,2.20000004768,12.9799995422
"2009-02-06 23:00:00",3.88000011444,0.0,106.199996948,63.2999992371,5.69000005722,1.70000004768,12.9300003052
"2009-02-07 00:00:00",2.78999996185,0.0,105.800003052,42.2999992371,6.07000017166,1.89999997616,12.8999996185
"2009-02-07 01:00:00",1.92999994755,0.0,106.400001526,29.2999992371,6.30999994278,2.09999990463,12.8599996567
"2009-02-07 02:00:00",1.28999996185,0.0,106.0,22.7000007629,6.42999982834,1.70000004768,12.8299999237
"2009-02-07 03:00:00",1.01999998093,0.0010000000475,106.099998474,11.3999996185,6.63999986649,1.70000004768,12.8000001907
"2009-02-07 04:00:00",0.409999996424,0.0010000000475,106.199996948,7.90000009537,6.71000003815,2.90000009537,12.7700004578
"2009-02-07 05:00:00",0.379999995232,0.0010000000475,106.5,9.39999961853,6.67999982834,2.09999990463,12.7399997711
"2009-02-07 06:00:00",0.170000001788,0.0010000000475,106.099998474,7.5,6.71999979019,2.0,12.6999998093
"2009-02-07 07:00:00",-0.00999999977648,0.0010000000475,106.300003052,7.59999990463,6.71000003815,1.89999997616,12.6700000763
"2009-02-07 08:00:00",-0.490000009537,0.0010000000475,106.300003052,-10.3000001907,7.05000019073,1.79999995232,12.6400003433
"2009-02-07 09:00:00",-0.5,0.0010000000475,106.599998474,-12.3000001907,7.09000015259,2.0,12.6099996567
"2009-02-07 10:00:00",-0.289999991655,0.0010000000475,106.699996948,-13.1999998093,7.09999990463,2.09999990463,12.5900001526
"2009-02-07 11:00:00",-0.560000002384,0.0010000000475,106.699996948,-14.1000003815,7.11999988556,1.70000004768,12.5600004196
"2009-02-07 12:00:00",-0.389999985695,0.0010000000475,106.800003052,-13.5,7.11000013351,1.70000004768,12.5799999237
"2009-02-07 13:00:00",0.540000021458,0.0010000000475,106.300003052,-17.0,7.17000007629,1.79999995232,12.6499996185
"2009-02-07 14:00:00",3.8599998951,0.0010000000475,105.699996948,-0.899999976158,6.86999988556,2.40000009537,12.8400001526
"2009-02-07 15:00:00",8.15999984741,0.0,103.5,16.8999996185,6.55000019073,2.09999990463,13.470000267
"2009-02-07 16:00:00",13.5100002289,0.0,102.199996948,66.1999969482,5.67999982834,1.79999995232,13.6999998093
"2009-02-07 17:00:00",18.1200008392,0.0,103.0,86.6999969482,5.34000015259,1.60000002384,13.4200000763
"2009-02-07 18:00:00",16.5200004578,0.0,104.300003052,89.0,5.28999996185,1.60000002384,13.3999996185
"2009-02-07 19:00:00",16.9400005341,0.0,104.0,101.300003052,5.07999992371,1.60000002384,13.3699998856
"2009-02-07 20:00:00",15.7600002289,0.0,104.800003052,109.900001526,4.92000007629,1.79999995232,13.3599996567
"2009-02-07 21:00:00",13.6099996567,0.0,104.900001526,117.699996948,4.76999998093,1.60000002384,13.0699996948
"2009-02-07 22:00:00",10.4099998474,0.0,106.300003052,86.9000015259,5.28999996185,1.60000002384,12.9799995422
"2009-02-07 23:00:00",8.65999984741,0.0,106.5,87.5999984741,5.26999998093,1.70000004768,12.9399995804
"2009-02-08 00:00:00",7.48999977112,0.0,106.699996948,77.3000030518,5.44999980927,1.70000004768,12.8999996185
"2009-02-08 01:00:00",7.98000001907,0.0,106.099998474,71.9000015259,5.55000019073,1.70000004768,12.8800001144
"2009-02-08 02:00:00",7.96999979019,0.0,106.400001526,68.6999969482,5.61000013351,1.60000002384,12.8599996567
"2009-02-08 03:00:00",7.82000017166,0.0,106.099998474,63.4000015259,5.71000003815,1.79999995232,12.8299999237
"2009-02-08 04:00:00",7.34000015259,0.0,106.400001526,61.0999984741,5.75,1.70000004768,12.8000001907
"2009-02-08 05:00:00",6.63000011444,0.0,106.599998474,57.4000015259,5.80999994278,1.70000004768,12.779999733
"2009-02-08 06:00:00",6.09999990463,0.0,106.699996948,29.7999992371,6.30999994278,1.70000004768,12.7399997711
"2009-02-08 07:00:00",5.61000013351,0.0,106.800003052,29.7000007629,6.30999994278,1.70000004768,12.7100000381
"2009-02-08 08:00:00",5.13999986649,0.0,106.599998474,26.3999996185,6.36999988556,1.70000004768,12.6899995804
"2009-02-08 09:00:00",4.61000013351,0.0010000000475,106.699996948,19.5,6.5,1.79999995232,12.6700000763
"2009-02-08 10:00:00",5.0,0.0010000000475,106.5,15.5,6.57000017166,1.60000002384,12.6499996185
"2009-02-08 11:00:00",5.90999984741,0.0010000000475,106.099998474,24.7999992371,6.40000009537,2.0,12.6400003433
"2009-02-08 12:00:00",6.36000013351,0.0,106.0,24.0,6.42000007629,1.70000004768,12.6400003433
"2009-02-08 13:00:00",7.21999979019,0.0,105.900001526,25.5,6.40000009537,1.70000004768,12.6899995804
"2009-02-08 14:00:00",10.4300003052,0.0,104.699996948,68.0,5.63999986649,1.70000004768,12.9399995804
"2009-02-08 15:00:00",13.1999998093,0.0,104.5,63.9000015259,5.71999979019,1.60000002384,13.3999996185
"2009-02-08 16:00:00",17.8899993896,0.0,105.800003052,66.3000030518,5.69999980927,1.60000002384,14.1099996567
"2009-02-08 17:00:00",20.9699993134,0.0,104.800003052,82.0,5.44000005722,1.5,13.3299999237
"2009-02-08 18:00:00",20.25,0.0,103.5,87.6999969482,5.34000015259,1.60000002384,13.3199996948
"2009-02-08 19:00:00",19.3199996948,0.0,98.9000015259,89.8000030518,5.30000019073,1.5,13.3000001907
"2009-02-08 20:00:00",18.7800006866,0.0,99.1999969482,88.5,5.32000017166,1.20000004768,13.3500003815
"2009-02-08 21:00:00",17.1800003052,0.0,100.199996948,85.9000015259,5.34999990463,1.39999997616,13.1000003815
"2009-02-08 22:00:00",13.7399997711,0.0,102.900001526,76.3000030518,5.5,1.39999997616,12.9799995422
"2009-02-08 23:00:00",11.7899999619,0.0,104.300003052,51.2999992371,5.94000005722,2.20000004768,12.9300003052
"2009-02-09 00:00:00",10.6599998474,0.0,104.599998474,44.9000015259,6.05000019073,1.39999997616,12.9200000763
"2009-02-09 01:00:00",9.76000022888,0.0,106.0,59.7000007629,5.78000020981,1.79999995232,12.8800001144
"2009-02-09 02:00:00",9.14000034332,0.0,106.300003052,60.9000015259,5.76000022888,1.60000002384,12.8599996567
"2009-02-09 03:00:00",8.38000011444,0.0,106.599998474,33.7000007629,6.25,1.60000002384,12.8299999237
"2009-02-09 04:00:00",7.88999986649,0.0010000000475,106.599998474,30.7999992371,6.30000019073,1.60000002384,12.8000001907
"2009-02-09 05:00:00",7.11000013351,0.0010000000475,106.800003052,26.0,6.38000011444,1.60000002384,12.75
"2009-02-09 06:00:00",6.23999977112,0.0010000000475,107.0,20.7999992371,6.48000001907,2.0,12.7399997711
"2009-02-09 07:00:00",5.90999984741,0.0010000000475,107.400001526,16.8999996185,6.55000019073,1.70000004768,12.7100000381
"2009-02-09 08:00:00",5.46999979019,0.0010000000475,107.599998474,11.6999998093,6.63999986649,4.0,12.6899995804
"2009-02-09 09:00:00",4.86999988556,0.00200000009499,106.099998474,7.59999990463,6.71999979019,1.39999997616,12.6700000763
"2009-02-09 10:00:00",4.65000009537,0.00200000009499,107.400001526,9.69999980927,6.67999982834,2.29999995232,12.6599998474
"2009-02-09 11:00:00",4.38000011444,0.00200000009499,107.300003052,7.30000019073,6.71999979019,2.5,12.6400003433
"2009-02-09 12:00:00",4.09999990463,0.00200000009499,107.400001526,6.80000019073,6.73000001907,1.5,12.6300001144
"2009-02-09 13:00:00",5.28999996185,0.00200000009499,106.800003052,2.90000009537,6.80999994278,2.0,12.6899995804
"2009-02-09 14:00:00",7.86999988556,0.00200000009499,106.599998474,11.1000003815,6.65999984741,1.39999997616,12.9300003052
"2009-02-09 15:00:00",11.529999733,0.0,105.199996948,43.4000015259,6.07999992371,1.39999997616,13.4399995804
"2009-02-09 16:00:00",15.4200000763,0.0,122.699996948,68.9000015259,5.63999986649,9.60000038147,14.0600004196
"2009-02-09 17:00:00",18.6000003815,0.0,101.400001526,69.5999984741,5.65000009537,1.10000002384,13.4300003052
"2009-02-09 18:00:00",16.5499992371,0.0,125.400001526,76.5999984741,5.51000022888,10.8000001907,13.4200000763
"2009-02-09 19:00:00",16.3700008392,0.0,101.400001526,76.0,5.51999998093,1.0,13.3999996185
"2009-02-09 20:00:00",15.5100002289,0.0,95.4000015259,78.4000015259,5.46999979019,1.0,13.3999996185
"2009-02-09 21:00:00",14.1099996567,0.0,103.0,78.5999984741,5.46000003815,1.0,13.1099996567
"2009-02-09 22:00:00",11.529999733,0.0,105.699996948,59.2000007629,5.80000019073,1.20000004768,12.9899997711
"2009-02-09 23:00:00",9.80000019073,0.0,106.599998474,57.7999992371,5.82000017166,1.10000002384,12.9399995804
"2009-02-10 00:00:00",9.02999973297,0.0,106.599998474,56.0999984741,5.84000015259,1.10000002384,12.9099998474